When you browse on this site, cookies collect data to enhance your experience and personalize the content and advertising you see.
Visit our Privacy Policy to learn more. By continuing to use the site, you agree to this use of cookies and data.
  • In Austria
  • List of Countries
  • For 7 days
  • Water Temperature
  • Weather Map
  • News
  • Weather Widgets
  • user-avatar
    Login

    Hourly Weather Progreso de Obregon

    Today, 24 January, Friday

    Time Temperature Precipitation Wind Pressure Humidity
    00:00 +13°C° 0.2 mm 1 mps 602 mmHg 85%
    01:00 +13°C° 0.2 mm 1 mps 601 mmHg 84%
    02:00 +13°C° 0.2 mm 1 mps 601 mmHg 84%
    03:00 +12°C° 0 mm 1 mps 601 mmHg 87%
    04:00 +12°C° 0 mm 1 mps 601 mmHg 89%
    05:00 +10°C° 0 mm 0 mps 601 mmHg 92%
    06:00 +12°C° 0 mm 1 mps 602 mmHg 88%
    07:00 +12°C° 0 mm 1 mps 603 mmHg 85%
    08:00 +13°C° 0 mm 1 mps 603 mmHg 81%
    09:00 +14°C° 0 mm 2 mps 604 mmHg 75%
    10:00 +15°C° 0 mm 2 mps 604 mmHg 68%
    11:00 +17°C° 0 mm 2 mps 604 mmHg 62%
    12:00 +17°C° 0 mm 2 mps 604 mmHg 59%
    13:00 +18°C° 0 mm 2 mps 604 mmHg 56%
    14:00 +19°C° 0 mm 3 mps 603 mmHg 52%
    15:00 +18°C° 0.1 mm 3 mps 603 mmHg 58%
    16:00 +17°C° 0.1 mm 3 mps 603 mmHg 64%
    17:00 +16°C° 0.1 mm 3 mps 602 mmHg 69%
    18:00 +14°C° 0.1 mm 3 mps 603 mmHg 76%
    19:00 +14°C° 0.1 mm 2 mps 603 mmHg 83%
    20:00 +13°C° 0.1 mm 2 mps 603 mmHg 89%
    21:00 +13°C° 0 mm 2 mps 603 mmHg 88%
    22:00 +13°C° 0 mm 1 mps 603 mmHg 87%
    23:00 +13°C° 0 mm 1 mps 603 mmHg 86%

    Tomorrow, 25 January, Saturday

    Time Temperature Precipitation Wind Pressure Humidity
    00:00 +13°C° 0 mm 1 mps 603 mmHg 86%
    01:00 +13°C° 0 mm 1 mps 602 mmHg 86%
    02:00 +13°C° 0 mm 1 mps 602 mmHg 85%
    03:00 +12°C° 0 mm 0 mps 602 mmHg 85%
    04:00 +12°C° 0 mm 0 mps 602 mmHg 85%
    05:00 +11°C° 0 mm 0 mps 602 mmHg 86%
    06:00 +13°C° 0 mm 1 mps 603 mmHg 82%
    07:00 +14°C° 0 mm 1 mps 603 mmHg 78%
    08:00 +14°C° 0 mm 1 mps 604 mmHg 74%
    09:00 +16°C° 0 mm 1 mps 604 mmHg 65%
    10:00 +19°C° 0 mm 1 mps 605 mmHg 55%
    11:00 +20°C° 0 mm 2 mps 605 mmHg 45%
    12:00 +21°C° 0 mm 2 mps 605 mmHg 41%
    13:00 +22°C° 0 mm 3 mps 605 mmHg 36%
    14:00 +24°C° 0 mm 3 mps 604 mmHg 31%
    15:00 +22°C° 0 mm 3 mps 604 mmHg 34%
    16:00 +22°C° 0 mm 3 mps 604 mmHg 37%
    17:00 +21°C° 0 mm 3 mps 603 mmHg 40%
    18:00 +19°C° 0 mm 2 mps 603 mmHg 48%
    19:00 +17°C° 0 mm 2 mps 603 mmHg 55%
    20:00 +16°C° 0 mm 1 mps 603 mmHg 62%
    21:00 +15°C° 0 mm 1 mps 603 mmHg 62%
    22:00 +15°C° 0 mm 1 mps 603 mmHg 61%
    23:00 +14°C° 0 mm 1 mps 603 mmHg 61%

    Day after tomorrow, 26 January, Sunday

    Time Temperature Precipitation Wind Pressure Humidity
    00:00 +14°C° 0 mm 1 mps 602 mmHg 61%
    01:00 +13°C° 0 mm 1 mps 602 mmHg 61%
    02:00 +13°C° 0 mm 1 mps 602 mmHg 62%
    03:00 +13°C° 0 mm 1 mps 602 mmHg 63%
    04:00 +12°C° 0 mm 1 mps 601 mmHg 64%
    05:00 +12°C° 0 mm 1 mps 601 mmHg 65%
    06:00 +13°C° 0 mm 1 mps 602 mmHg 61%
    07:00 +14°C° 0 mm 1 mps 603 mmHg 57%
    08:00 +15°C° 0 mm 1 mps 604 mmHg 52%
    09:00 +18°C° 0 mm 1 mps 604 mmHg 48%
    10:00 +19°C° 0 mm 1 mps 605 mmHg 44%
    11:00 +20°C° 0 mm 2 mps 605 mmHg 39%
    12:00 +20°C° 0 mm 2 mps 604 mmHg 40%
    13:00 +20°C° 0 mm 2 mps 604 mmHg 40%
    14:00 +20°C° 0 mm 3 mps 603 mmHg 41%
    15:00 +19°C° 0.1 mm 3 mps 603 mmHg 47%
    16:00 +18°C° 0.1 mm 2 mps 602 mmHg 53%
    17:00 +17°C° 0.1 mm 2 mps 602 mmHg 59%
    18:00 +16°C° 0.1 mm 2 mps 602 mmHg 62%
    19:00 +16°C° 0.1 mm 1 mps 603 mmHg 64%
    20:00 +15°C° 0.1 mm 1 mps 603 mmHg 66%
    21:00 +15°C° 0 mm 1 mps 603 mmHg 69%
    22:00 +14°C° 0 mm 1 mps 602 mmHg 73%
    23:00 +12°C° 0 mm 0 mps 602 mmHg 76%

    27 January, Monday

    Time Temperature Precipitation Wind Pressure Humidity
    00:00 +12°C° 0 mm 0 mps 602 mmHg 78%
    01:00 +11°C° 0 mm 0 mps 601 mmHg 80%
    02:00 +11°C° 0 mm 0 mps 601 mmHg 82%
    03:00 +11°C° 0 mm 0 mps 601 mmHg 82%
    04:00 +10°C° 0 mm 0 mps 601 mmHg 82%
    05:00 +10°C° 0 mm 0 mps 601 mmHg 83%
    06:00 +12°C° 0 mm 1 mps 602 mmHg 76%
    07:00 +14°C° 0 mm 1 mps 602 mmHg 69%
    08:00 +15°C° 0 mm 1 mps 603 mmHg 63%
    09:00 +18°C° 0 mm 1 mps 604 mmHg 54%
    10:00 +19°C° 0 mm 1 mps 604 mmHg 45%
    11:00 +21°C° 0 mm 1 mps 604 mmHg 37%
    12:00 +21°C° 0 mm 2 mps 604 mmHg 32%
    13:00 +23°C° 0 mm 2 mps 604 mmHg 26%
    14:00 +24°C° 0 mm 3 mps 603 mmHg 21%
    15:00 +24°C° 0 mm 3 mps 603 mmHg 24%
    16:00 +22°C° 0 mm 3 mps 603 mmHg 27%
    17:00 +21°C° 0 mm 3 mps 603 mmHg 30%
    18:00 +19°C° 0 mm 2 mps 602 mmHg 41%
    19:00 +17°C° 0 mm 2 mps 602 mmHg 52%
    20:00 +15°C° 0 mm 1 mps 602 mmHg 62%
    21:00 +15°C° 0 mm 1 mps 602 mmHg 64%
    22:00 +14°C° 0 mm 1 mps 601 mmHg 65%
    23:00 +14°C° 0 mm 1 mps 601 mmHg 67%

    28 January, Tuesday

    Time Temperature Precipitation Wind Pressure Humidity
    00:00 +13°C° 0 mm 1 mps 601 mmHg 64%
    01:00 +13°C° 0 mm 1 mps 600 mmHg 61%
    02:00 +12°C° 0 mm 1 mps 600 mmHg 58%
    03:00 +12°C° 0 mm 1 mps 600 mmHg 58%
    04:00 +11°C° 0 mm 1 mps 600 mmHg 57%
    05:00 +11°C° 0 mm 1 mps 600 mmHg 57%
    06:00 +12°C° 0 mm 1 mps 601 mmHg 52%
    07:00 +14°C° 0 mm 1 mps 602 mmHg 47%
    08:00 +15°C° 0 mm 1 mps 603 mmHg 42%
    09:00 +18°C° 0 mm 1 mps 603 mmHg 37%
    10:00 +19°C° 0 mm 1 mps 603 mmHg 33%
    11:00 +21°C° 0 mm 1 mps 604 mmHg 29%
    12:00 +22°C° 0 mm 1 mps 603 mmHg 27%
    13:00 +21°C° 0 mm 2 mps 603 mmHg 24%
    14:00 +23°C° 0 mm 2 mps 603 mmHg 22%
    15:00 +21°C° 0 mm 3 mps 603 mmHg 27%
    16:00 +20°C° 0 mm 3 mps 602 mmHg 32%
    17:00 +19°C° 0 mm 3 mps 602 mmHg 36%
    18:00 +18°C° 0 mm 3 mps 602 mmHg 53%
    19:00 +16°C° 0 mm 3 mps 602 mmHg 69%
    20:00 +14°C° 0 mm 2 mps 602 mmHg 86%
    21:00 +14°C° 0 mm 2 mps 602 mmHg 87%
    22:00 +13°C° 0 mm 2 mps 602 mmHg 89%
    23:00 +13°C° 0 mm 1 mps 602 mmHg 90%

    29 January, Wednesday

    Time Temperature Precipitation Wind Pressure Humidity
    00:00 +13°C° 0.1 mm 2 mps 602 mmHg 90%
    01:00 +13°C° 0.1 mm 2 mps 602 mmHg 90%
    02:00 +12°C° 0.1 mm 2 mps 602 mmHg 90%
    03:00 +12°C° 0 mm 2 mps 601 mmHg 88%
    04:00 +10°C° 0 mm 2 mps 601 mmHg 87%
    05:00 +10°C° 0 mm 2 mps 601 mmHg 86%
    06:00 +10°C° 0 mm 2 mps 601 mmHg 83%
    07:00 +11°C° 0 mm 1 mps 602 mmHg 79%
    08:00 +11°C° 0 mm 1 mps 602 mmHg 76%
    09:00 +13°C° 0 mm 1 mps 602 mmHg 67%
    10:00 +16°C° 0 mm 1 mps 603 mmHg 59%
    11:00 +19°C° 0 mm 1 mps 603 mmHg 50%
    12:00 +19°C° 0 mm 2 mps 603 mmHg 44%
    13:00 +21°C° 0 mm 2 mps 603 mmHg 38%
    14:00 +22°C° 0 mm 3 mps 603 mmHg 32%
    15:00 +21°C° 0 mm 3 mps 602 mmHg 38%
    16:00 +19°C° 0 mm 3 mps 602 mmHg 43%
    17:00 +18°C° 0 mm 3 mps 601 mmHg 49%
    18:00 +16°C° 0 mm 2 mps 601 mmHg 56%
    19:00 +15°C° 0 mm 2 mps 601 mmHg 63%
    20:00 +14°C° 0 mm 1 mps 601 mmHg 71%
    21:00 +13°C° 0 mm 1 mps 600 mmHg 70%
    22:00 +13°C° 0 mm 1 mps 600 mmHg 70%
    23:00 +12°C° 0 mm 1 mps 600 mmHg 70%
    Show more